• Processing (Info)

  • MPEC 2014-L13 : 2014 KA91

    The following Minor Planet Electronic Circular may be linked-to from your own Web pages, but must not otherwise be redistributed electronically.

    A form allowing access to any MPEC is at the bottom of this page.


    Read MPEC 2014-L12 Read MPEC 2014-L14


    M.P.E.C. 2014-L13                                Issued 2014 June 3, 00:25 UT
    
         The Minor Planet Electronic Circulars contain information on unusual
             minor planets and routine data on comets.  They are published
       on behalf of Commission 20 of the International Astronomical Union by the
              Minor Planet Center, Smithsonian Astrophysical Observatory,
                              Cambridge, MA 02138, U.S.A.
    
                 Prepared using the Tamkin Foundation Computer Network
    
                                  MPC@CFA.HARVARD.EDU
                URL http://www.minorplanetcenter.net/    ISSN 1523-6714
    
                                       2014 KA91
    
    Observations:
         K14K91A* C2014 05 30.37903 14 54 53.438-22 01 44.55         19.9 wLEL013F51
         K14K91A  C2014 05 30.38960 14 54 51.494-21 59 27.99         20.2 wLEL013F51
         K14K91A  C2014 05 30.40018 14 54 49.558-21 57 10.99         19.9 wLEL013F51
         K14K91A _C2014 05 31.30866114 53 25.152-18 23 15.71         19.0 RtEL013568
         K14K91A _C2014 05 31.30991314 53 24.909-18 22 56.60         19.2 RtEL013568
         K14K91A _C2014 05 31.31141414 53 24.614-18 22 33.65         19.1 RtEL013568
         K14K91A KC2014 06 02.87555 14 48 03.41 -03 54 43.9          19.6 VqEL013958
         K14K91A KC2014 06 02.88255 14 48 01.78 -03 51 39.8          19.6 VqEL013958
         K14K91A KC2014 06 02.89002 14 47 59.99 -03 48 24.9          19.5 VqEL013958
    
    Observer details:
    568 Mauna Kea.  Observers R. J. Wainscoat, A. Draginda.  Measurers M. Micheli,
        B. Bolin.  3.6-m Canada-France-Hawaii Telescope + CCD.
    958 Observatoire de Dax.  Observers P. Dupouy, J. B. de Vanssay.  Measurer
        P. Dupouy.  0.43-m f/2.7 reflector + CCD.
    F51 Pan-STARRS 1, Haleakala.  Observers N. Primak, A. Schultz, T. Goggia,
        M. Willman.  Measurer PS1 Science Consortium.  1.8-m Ritchey-Chretien
        + CCD.
    
    Orbital elements:
    2014 KA91                                                Earth MOID = 0.0194 AU
    Epoch 2014 May 23.0 TT = JDT 2456800.5                  MPC
    M 313.28938              (2000.0)            P               Q
    n   0.69962225     Peri.   67.58353     +0.71650747     +0.68112255
    a   1.2566866      Node   249.11923     -0.68452209     +0.64492555
    e   0.2779942      Incl.    9.27755     -0.13433748     +0.34661666
    P   1.41           H   25.5           G   0.15           U   6
    Residuals in seconds of arc
    140530 F51  0.1+  0.0     140531 568  0.0   0.0     140602 958  0.2+  0.2-
    140530 F51  0.0   0.1+    140531 568  0.0   0.0     140602 958  0.3+  0.6+
    140530 F51  0.1-  0.1-    140531 568  0.0   0.0     140602 958  0.2-  0.4-
    
    Ephemeris:
    2014 KA91                a,e,i = 1.26, 0.28, 9                   q = 0.9073
    Date    TT    R. A. (2000) Decl.     Delta      r     Elong.  Phase     V
    2014 05 04    15 14 35.2 -44 14 49   0.1801  1.1687   150.8    24.9    23.3
    ...
    2014 05 19    15 07 16.3 -40 10 09   0.09723 1.1025   158.2    19.9    21.6
    ...
    2014 05 27    14 59 36.9 -30 59 01   0.05800 1.0680   160.7    18.3    20.4
    ...
    2014 06 02    14 50 01.4 -09 41 13   0.03299 1.0431   151.2    28.0    19.4
    2014 06 03    14 47 40.8 -02 56 31   0.02975 1.0391   146.1    33.0    19.3
    2014 06 04    14 44 56.2 +05 17 05   0.02703 1.0351   139.3    39.7    19.3
    ...
    2014 06 10    14 00 39.4 +68 35 28   0.02839 1.0116    82.1    96.3    21.2
    ...
    2014 06 18    04 08 25.5 +76 55 24   0.05950 0.9829    54.8   122.4    24.4
    ...
    2014 07 03    03 40 33.2 +62 46 52   0.1303  0.9391    50.5   123.4    26.1
    
    A. U. Tomatic                (C) Copyright 2014 MPC           M.P.E.C. 2014-L13
    

    Read MPEC 2014-L12 Read MPEC 2014-L14


    MPEC number:

    Enter an MPEC number in one of the following forms:

    • 1997-B01 (the full form)
    • J97B01 (the packed version of the full form)
    • B01 (the abbreviated form)